Weather History for KMOB - September, 2012

Change the Weather History Date:

Friday, September 21, 2012

  Actual Average Record
Temperature  
Mean Temperature 76 °F 76 °F  
Max Temperature 87 °F 86 °F 99 °F (1925)
Min Temperature 64 °F 67 °F 51 °F (1918)
Degree Days  
Heating Degree Days 0 0  
Month to date heating degree days 0 0  
Since 1 July heating degree days 0 0  
Cooling Degree Days 11 11  
Month to date cooling degree days 271 288  
Year to date cooling degree days 2454 2215  
Growing Degree Days 26 (Base 50)    
Moisture  
Dew Point 63 °F    
Average Humidity 69    
Maximum Humidity 93    
Minimum Humidity 44    
Precipitation  
Precipitation 0.00 in 0.17 in 2.44 in (1898)
Month to date precipitation 1.74 3.64  
Year to date precipitation 61.61 50.80  
Sea Level Pressure  
Sea Level Pressure 30.02 in    
Wind  
Wind Speed 3 mph (NE)    
Max Wind Speed 9 mph    
Max Gust Speed 12 mph    
Visibility 10 miles    
Events      
T = Trace of Precipitation, MM = Missing Value Source: NWS Daily Summary

Daily Weather History Graph

Daily Weather History Graph

Search for Another Location

Airport or City:

Trip Planner

Search our weather history database for the weather conditions in past years. The results will help you decide how hot, cold, wet, or windy it might be!

Date:

Astronomy

Sep. 21, 2012 Rise Set
Actual Time 6:41 AM CDT 6:50 PM CDT
Civil Twilight 6:16 AM CDT 7:14 PM CDT
Nautical Twilight 5:48 AM CDT 7:42 PM CDT
Astronomical Twilight 5:20 AM CDT 8:10 PM CDT
Moon 12:37 PM CDT (9/21) 11:15 PM CDT (9/21)
Length of Visible Light 12h 57m
Length of Day
12h 09m
Waxing Crescent, 37% of the Moon is Illuminated
Sep 21
Waxing Crescent
Sep 22
First Quarter
Sep 29
Full
Oct 8
Last Quarter
Oct 15
New

Hourly Weather History & Observations

Time (CDT) Temp. Heat Index Dew Point Humidity Pressure Visibility Wind Dir Wind Speed Gust Speed Precip Events Conditions
12:56 AM 64.9 °F - 62.1 °F 90% 30.04 in 9.0 mi Calm Calm - N/A   Partly Cloudy
1:56 AM 64.9 °F - 62.1 °F 90% 30.03 in 10.0 mi Calm Calm - N/A   Partly Cloudy
2:56 AM 66.0 °F - 61.0 °F 84% 30.03 in 10.0 mi Calm Calm - N/A   Partly Cloudy
3:56 AM 68.0 °F - 61.0 °F 78% 30.03 in 10.0 mi Calm Calm - N/A   Scattered Clouds
4:56 AM 64.9 °F - 61.0 °F 87% 30.03 in 10.0 mi Calm Calm - N/A   Partly Cloudy
5:56 AM 64.9 °F - 61.0 °F 87% 30.03 in 10.0 mi Calm Calm - N/A   Partly Cloudy
6:56 AM 64.9 °F - 61.0 °F 87% 30.04 in 10.0 mi Calm Calm - N/A   Scattered Clouds
7:56 AM 69.1 °F - 63.0 °F 81% 30.04 in 10.0 mi ENE 3.5 mph - N/A   Partly Cloudy
8:56 AM 73.9 °F - 62.1 °F 66% 30.04 in 10.0 mi ENE 6.9 mph - N/A   Scattered Clouds
9:56 AM 79.0 °F - 63.0 °F 58% 30.05 in 10.0 mi NNE 4.6 mph - N/A   Scattered Clouds
10:56 AM 80.1 °F 81.5 °F 63.0 °F 56% 30.06 in 10.0 mi East 5.8 mph - N/A   Scattered Clouds
11:56 AM 82.9 °F 83.7 °F 62.1 °F 49% 30.05 in 10.0 mi ENE 4.6 mph - N/A   Scattered Clouds
12:56 PM 84.0 °F 84.4 °F 61.0 °F 46% 30.03 in 10.0 mi NW 4.6 mph - N/A   Scattered Clouds
1:56 PM 86.0 °F 86.3 °F 62.1 °F 44% 30.01 in 10.0 mi North 6.9 mph - N/A   Scattered Clouds
2:56 PM 86.0 °F 86.3 °F 62.1 °F 44% 29.99 in 10.0 mi NE 5.8 mph - N/A   Scattered Clouds
3:56 PM 86.0 °F 86.3 °F 62.1 °F 44% 29.98 in 10.0 mi Variable 5.8 mph - N/A   Scattered Clouds
4:56 PM 84.9 °F 85.9 °F 63.0 °F 48% 29.97 in 10.0 mi ENE 4.6 mph - N/A   Scattered Clouds
5:56 PM 82.9 °F 84.4 °F 64.0 °F 53% 29.96 in 10.0 mi NE 4.6 mph - N/A   Scattered Clouds
6:56 PM 77.0 °F - 66.0 °F 69% 29.97 in 10.0 mi Calm Calm - N/A   Scattered Clouds
7:56 PM 75.0 °F - 66.9 °F 76% 29.99 in 10.0 mi SSW 5.8 mph - N/A   Scattered Clouds
8:56 PM 73.0 °F - 66.9 °F 81% 30.01 in 10.0 mi Calm Calm - N/A   Mostly Cloudy
9:56 PM 71.1 °F - 66.9 °F 87% 30.03 in 10.0 mi Calm Calm - N/A   Mostly Cloudy
10:56 PM 71.1 °F - 66.9 °F 87% 30.03 in 10.0 mi Calm Calm - N/A   Scattered Clouds
11:56 PM 69.1 °F - 66.0 °F 90% 30.02 in 10.0 mi Calm Calm - N/A   Scattered Clouds